Weather Roundup
Issued by NWS Springfield, MO

Home | Current Version | Previous Version | Text Only | Print | Product List | Glossary On
Versions: 1 2 3 4 5 6 7 8 9 10 11 12 13 14 15 16 17 18 19 20 21 22 23 24 25 26 27 28 29 30 31 32 33 34 35 36 37 38 39 40 41 42 43 44 45 46 47 48 49 50
000
NZUS99 KSGF 220159
HRRSGF

HOURLY WEATHER
NATIONAL WEATHER SERVICE SPRINGFIELD MO
800 PM CST FRI NOV 21 2014

......SGF CWA......

CITY           SKY/WX    TMP DP  RH WIND       PRES   REMARKS
SPRINGFIELD    CLOUDY    43  40  89 SE14      30.15R
JOPLIN         CLOUDY    50  45  83 SE10      30.12R
WEST PLAINS    CLOUDY    38  36  92 SE8       30.25S FOG     WCI  32
ROLLA          CLOUDY    42  35  76 S12       30.18S
OSAGE BEACH    CLOUDY    45  36  70 S10       30.17S
BRANSON        CLOUDY    41  39  93 SE8       30.19S FOG

......SURROUNDING SGF CWA......

CITY           SKY/WX    TMP DP  RH WIND       PRES   REMARKS
CHANUTE        CLOUDY    54  51  90 SE12      30.07S
PARSONS        CLOUDY    54  52  93 S10G18    30.09R
COFFEYVILLE    LGT RAIN  53  51  93 S14       30.08F
EMPORIA        FOG       41  41 100 CALM      30.04S VSB 1/4
SILOAM SPRINGS CLOUDY    54  45  71 SE12G17   30.14S
HARRISON AR    FOG       42  42 100 SE9       30.19S VSB 1/4
NEAR YELLVILLE CLOUDY    41  36  81 SE7       30.24S

......KANSAS AND MISSOURI......

CITY           SKY/WX    TMP DP  RH WIND       PRES   REMARKS
KANSAS CTY INT CLOUDY    41  37  86 SE7       30.07S
DOWNTOWN KC    CLOUDY    47  39  74 SE7       30.07F
COLUMBIA       CLOUDY    44  28  53 SE10      30.16F
SEDALIA        MOCLDY    45  31  58 S13       30.13S
ST JOSEPH      CLOUDY    40  33  76 SE7       30.09S
ST LOUIS       CLOUDY    43  23  45 SE13      30.26F
SPIRIT OF STL  CLOUDY    43  25  49 SE5       30.25S
KIRKSVILLE     CLOUDY    38  25  59 SE14G22   30.14F WCI  30
WICHITA        FOG       45  44  97 SW5       30.03S VSB 1/4
TOPEKA         CLOUDY    41  39  93 CALM      30.06F FOG
OLATHE         CLOUDY    45  41  86 SE10      30.06F

......TENNESSEE......

CITY           SKY/WX    TMP DP  RH WIND       PRES   REMARKS
MEMPHIS        CLOUDY    50  42  74 E6        30.28F
NASHVILLE      CLOUDY    46  26  45 E3        30.38R

......ARKANSAS.......

CITY           SKY/WX    TMP DP  RH WIND       PRES   REMARKS
FAYETTEVILLE   CLOUDY    52  50  93 S13       30.15R
FT SMITH       CLOUDY    48  45  89 NE9       30.17S
LITTLE ROCK    CLOUDY    49  46  90 E5        30.26F FOG

......OKLAHOMA.......

CITY           SKY/WX    TMP DP  RH WIND       PRES   REMARKS
TULSA          CLOUDY    53  51  93 SE10      30.08R
PONCA CITY     CLOUDY    48  47  96 CALM      30.05R FOG
MCALESTER      CLOUDY    58  56  93 SE6       30.11R
OKLAHOMA CITY  CLOUDY    60  56  86 S12       30.04S

......IOWA............

CITY           SKY/WX    TMP DP  RH WIND       PRES   REMARKS
DES MOINES     CLOUDY    37  26  64 S10       30.09F WCI  30
QUAD CITIES    CLOUDY    35  12  38 SE8       30.18F WCI  29

......ILLINOIS........

CITY           SKY/WX    TMP DP  RH WIND       PRES   REMARKS
QUINCY         LGT RAIN  35  25  66 SE12      30.18F WCI  27
CHICAGO        MOCLDY    29   9  43 S14       30.27F WCI  18




USA.gov is the U.S. government's official web portal to all federal, state and local government web resources and services.